Regional Weather Roundup
Issued by NWS

Home | Current Version | Previous Version | Graphics & Text | Print | Product List | Glossary On
Versions: 1 2 3 4 5 6 7 8 9 10 11 12 13 14 15 16 17 18 19 20 21 22 23 24 25 26 27 28 29 30 31 32 33 34 35 36 37 38 39 40 41 42 43 44 45 46 47 48 49 50
221
ASUS43 KLSX 070310
RWRMO

WEATHER SUMMARY FOR MISSOURI
NATIONAL WEATHER SERVICE SPRINGFIELD MO
900 PM CST SAT FEB 06 2016

NOTE: "FAIR" INDICATES FEW OR NO CLOUDS BELOW 12,000 FEET WITH NO
       SIGNIFICANT WEATHER AND/OR OBSTRUCTIONS TO VISIBILITY.
       CURRENT SKY AND/OR WEATHER CONDITIONS ARE NOT AVAILABLE FOR
       CHILLICOTHE AND FARMINGTON.

MOZ001>031-035>038-043-044-053-054-070400-
...NORTHERN AND WESTERN MISSOURI...

CITY           SKY/WX    TMP DP  RH WIND       PRES   REMARKS
KANSAS CTY INT PTCLDY    39  29  67 S13       30.11F
KANSAS C DTWN  CLEAR     41  28  60 S8        30.12F
LEE`S SUMMIT   PTCLDY    41  28  60 SW12      30.13F
ST JOSEPH      MOCLDY    39  28  64 SW10      30.08F
CHILLICOTHE      N/A     39  29  67 S7        30.11F
KIRKSVILLE     CLOUDY    37  29  72 S9        30.10F

$$
MOZ066>068-077>081-088>096-101>105-070400-
...SOUTHWEST MISSOURI...

CITY           SKY/WX    TMP DP  RH WIND       PRES   REMARKS
SPRINGFIELD    CLEAR     38  26  62 SW7       30.21S
JOPLIN         CLEAR     36  27  69 S8        30.22F WCI  30

$$
MOZ032>034-039>042-045>050-055>058-069>072-070400-
...CENTRAL MISSOURI...

CITY           SKY/WX    TMP DP  RH WIND       PRES   REMARKS
COLUMBIA       CLEAR     38  26  62 SW8       30.17S
JEFFERSON CITY CLEAR     39  27  62 CALM      30.18F
ROLLA          LGT RAIN  39  25  57 SW6       30.17F
SEDALIA        CLEAR     40  27  59 SW8       30.17F
WHITEMAN AFB   CLEAR     35  28  76 SW12      30.14F WCI  27
WARRENSBURG    MOCLDY    37  30  75 S7        30.15F
OSAGE BEACH    CLEAR     43  27  52 SW6       30.20S

$$
MOZ051-052-059>065-070400-
...EAST CENTRAL MISSOURI...

CITY           SKY/WX    TMP DP  RH WIND       PRES   REMARKS
ST LOUIS INTL  PTCLDY    43  26  51 SW5       30.18F
SPIRIT OF STL  CLEAR     34  28  79 CALM      30.18F
ST CHARLES     CLEAR     34  30  85 CALM      30.17F

$$
MOZ072>076-082>087-097>100-106>115-070400-
...SOUTH CENTRAL AND SOUTHEAST MISSOURI...

CITY           SKY/WX    TMP DP  RH WIND       PRES   REMARKS
CAPE GIRARDEAU CLEAR     42  25  50 S8        30.26S
FARMINGTON     CLEAR     39  18  42 S7        30.22S
POPLAR BLUFF   CLEAR     38  25  59 SW6       30.27S
WEST PLAINS    CLEAR     42  15  33 S6        30.23F

$$




USA.gov is the U.S. government's official web portal to all federal, state and local government web resources and services.